Terminal Aerodrome Forecast
Issued by NWS Portland, OR

Home | Current Version | Previous Version | Text Only | Print | Product List | Glossary On
Versions: 1 2 3 4 5 6 7 8 9 10 11 12 13 14 15 16 17 18 19 20 21 22 23 24 25 26 27 28
000
FTUS46 KPQR 191121
TAFPDX
TAF
KPDX 191121Z 1912/2012 VRB03KT P6SM SCT200
     FM191500 14012KT P6SM BKN050 OVC150
     FM191900 22012KT P6SM -RA BKN025
     FM200100 27012G20KT P6SM BKN100
     FM201000 16004KT P6SM SCT150=

USA.gov is the U.S. government's official web portal to all federal, state and local government web resources and services.